GFSMW_prec_cthk_000.txt.gz
RH
38 47 54 58 54 54 55 54 58 72 80 75 63 66 67 74 73 71 68 71 72 69 72 70 69 65 63 60 56 50 45 43 41 40 39 37 38 45 47 55 60 62 48
40 43 48 51 55 52 54 60 64 66 67 70 69 70 73 70 68 69 70 71 72 81 86 83 73 68 66 62 56 55 49 43 39 39 36 37 35 37 36 39 47 64 71
41 45 50 54 55 54 57 60 62 66 70 71 73 72 68 65 64 70 81 76 76 78 74 72 67 60 54 52 47 44 43 42 40 42 46 45 45 41 37 35 35 43 63
41 43 46 48 48 53 60 65 66 68 71 74 71 68 66 69 75 72 64 59 59 59 60 59 57 54 50 47 45 45 46 44 41 40 42 43 46 48 41 34 33 37 48
48 51 53 54 56 59 62 66 68 70 67 65 66 67 69 69 64 60 55 56 56 58 57 53 53 52 49 48 48 49 47 47 52 50 47 46 49 55 60 48 42 39 43
49 53 56 58 60 63 69 72 69 64 62 63 64 63 60 56 58 59 60 58 60 58 57 57 55 53 53 54 56 57 59 56 54 52 56 54 51 46 52 53 42 41 34
56 60 63 66 65 65 66 65 64 64 65 65 62 60 61 62 64 65 64 64 60 63 61 61 60 58 57 59 58 56 56 53 48 51 58 61 61 58 59 63 58 50 44
56 59 60 60 62 62 59 59 58 58 60 62 63 65 66 66 67 69 72 68 63 64 64 57 51 52 49 50 47 45 49 51 54 61 66 62 61 67 66 69 77 72 65
62 60 70 72 63 63 61 57 57 60 65 66 64 61 61 65 71 71 69 71 72 69 61 54 49 49 40 41 44 50 56 57 61 68 70 69 71 70 74 77 83 93 87
71 74 75 68 65 65 62 63 64 62 65 68 63 65 72 73 70 70 67 68 57 48 41 42 38 38 42 47 53 56 63 69 75 84 90 93 91 89 90 90 88 84 81
64 71 72 65 64 64 63 66 64 66 66 65 67 74 74 70 69 65 53 45 38 29 28 33 36 41 49 52 60 71 76 79 83 89 95 96 98 98 98 98 93 86 84
62 61 63 65 65 70 70 68 67 68 68 69 70 70 70 68 61 50 44 37 30 32 38 44 45 47 52 55 59 61 63 66 74 83 84 84 88 91 94 96 96 93 89
61 61 61 63 63 63 63 61 61 62 62 64 65 61 61 55 53 47 44 39 38 44 46 45 46 46 46 45 46 45 46 45 43 39 37 40 53 56 63 64 76 84 88
61 62 66 62 61 59 55 56 59 58 59 60 63 54 57 49 44 44 41 43 46 45 44 49 52 51 52 51 48 45 42 39 37 32 29 33 41 53 62 62 59 58 68
66 67 66 62 59 54 51 51 51 53 55 62 71 55 50 47 45 45 47 47 47 47 52 53 50 52 52 50 47 43 44 48 47 43 41 39 41 46 52 54 59 54 45
67 66 62 58 59 53 48 44 44 48 58 56 54 50 70 84 77 79 69 54 54 56 60 54 53 52 52 52 53 51 59 64 66 64 59 55 53 54 63 63 56 53 48
65 61 59 59 53 46 41 42 40 36 41 45 54 59 77 87 86 77 60 64 61 65 63 55 55 56 57 59 55 58 68 74 74 71 71 72 75 77 78 70 62 57 51
62 60 53 49 50 46 44 38 32 27 30 44 59 66 68 70 78 61 70 71 75 78 54 54 59 60 61 62 66 66 77 82 82 80 80 78 75 78 80 71 61 56 55
59 52 46 49 46 45 42 37 31 35 39 44 45 73 77 92 76 73 74 81 84 54 55 57 60 59 57 54 67 85 89 92 90 93 95 95 86 80 81 72 63 55 50
48 47 50 50 47 42 39 34 35 36 40 41 50 75 84 95 89 75 78 85 57 53 57 55 53 54 52 68 89 95 96 94 93 97 97 94 94 94 91 81 73 65 61
53 54 48 45 41 39 37 38 36 37 48 51 49 71 93 96 79 74 83 58 50 54 53 51 54 50 60 82 91 93 92 95 96 97 94 90 87 84 81 77 72 67 64
54 49 46 43 38 37 42 43 40 37 43 52 59 67 75 76 76 82 75 48 51 54 55 56 52 52 67 84 86 89 95 97 98 99 99 99 99 96 90 87 85 81 80
50 46 45 41 38 45 50 47 45 43 48 51 63 68 72 78 84 83 47 48 51 53 56 55 52 47 66 74 86 90 95 98 99 99 99 99 99 99 99 98 90 88 88
45 45 41 37 39 38 41 46 46 49 53 61 70 77 81 83 82 56 48 48 51 52 56 56 50 47 60 76 88 93 97 98 98 99 99 99 99 99 99 99 99 98 96
45 41 37 38 36 37 42 44 46 52 56 66 71 72 77 84 62 48 48 48 49 52 57 57 53 48 58 78 87 93 97 98 99 99 99 98 98 98 99 98 96 92 87
34 31 32 34 36 40 44 48 52 56 64 68 68 74 69 61 53 53 47 44 49 53 57 57 54 50 55 76 87 92 97 99 99 99 99 98 98 98 99 95 89 85 84

GFSMW_prec_cthk_006.txt.gz
RH
44 48 51 53 58 68 74 71 79 82 71 66 71 75 74 75 75 75 77 73 69 66 67 63 56 53 51 52 49 46 45 44 40 36 33 30 31 32 35 35 36 40 43
52 55 59 66 75 70 68 70 67 65 68 74 75 74 73 73 76 79 75 71 65 61 56 55 53 51 51 49 50 49 46 45 46 44 39 35 32 35 39 40 39 40 42
58 60 61 60 60 62 64 61 63 65 67 70 72 72 73 74 73 67 65 62 57 53 50 48 48 48 48 48 51 53 55 53 51 47 48 45 45 43 39 39 42 44 45
58 57 54 50 47 50 51 53 58 62 63 64 65 67 67 63 58 56 52 50 48 46 46 49 51 52 53 53 55 55 52 50 46 49 49 54 52 46 49 47 43 40 36
53 48 47 46 46 48 49 51 54 57 59 58 55 51 49 48 48 47 46 50 54 56 53 57 61 65 63 48 42 45 46 46 48 44 44 43 46 47 46 45 37 36 38
49 47 48 48 50 50 51 53 53 51 52 51 51 49 47 47 46 48 51 54 57 59 58 69 63 61 55 44 43 41 41 42 42 42 42 41 46 47 48 46 33 39 33
59 61 55 52 51 53 58 59 60 60 56 52 49 49 48 49 52 55 57 67 65 78 58 60 56 56 46 35 34 35 36 36 44 47 49 51 55 61 58 60 55 51 41
61 60 62 60 60 58 56 54 54 57 57 56 58 58 59 61 60 64 65 75 72 73 57 55 49 46 41 32 28 26 28 32 37 41 45 49 54 64 70 74 75 69 63
58 64 67 67 64 58 55 58 60 63 62 61 62 65 67 62 60 61 42 42 43 49 56 60 52 37 28 30 35 41 38 32 35 37 36 40 49 62 74 82 88 95 87
68 70 70 67 58 60 62 63 62 61 61 62 60 57 50 43 39 36 39 52 56 61 70 68 55 47 50 51 51 52 30 34 37 35 35 38 43 46 52 56 70 85 96
75 73 71 67 63 64 63 60 61 59 58 57 48 36 36 39 42 44 45 53 62 84 79 71 72 68 59 53 52 43 34 38 40 43 45 46 46 43 39 39 39 52 68
77 72 70 67 67 64 62 63 60 56 51 41 36 36 38 40 44 46 49 56 63 71 80 88 80 72 61 53 46 36 43 40 40 42 45 45 45 40 39 38 34 27 38
76 73 67 67 62 56 55 55 55 50 39 32 31 29 28 28 32 43 42 51 66 80 93 80 72 68 63 56 49 39 40 44 49 51 51 51 49 45 43 44 45 41 36
76 70 66 63 60 59 56 53 46 37 36 33 31 29 26 23 26 38 48 70 72 73 70 78 77 72 63 49 45 45 46 49 52 55 58 59 60 59 60 61 60 58 53
74 71 67 64 62 57 51 41 38 39 37 34 30 27 21 20 26 36 41 47 59 62 73 85 81 68 53 50 51 49 51 53 51 53 65 72 72 73 80 83 83 83 78
72 69 67 63 57 48 43 42 41 38 35 31 30 26 22 21 24 27 34 48 59 67 88 92 78 54 47 53 51 53 51 46 51 67 73 75 75 76 84 87 94 95 90
73 71 66 58 50 45 45 45 40 36 34 33 28 23 21 23 28 33 46 56 72 82 90 75 66 47 53 51 52 50 46 47 66 75 80 77 82 85 85 92 93 93 92
70 65 59 52 48 47 46 45 38 36 32 28 24 24 24 26 32 44 55 76 86 83 75 70 54 51 49 50 50 49 43 56 72 83 84 87 90 92 93 94 91 97 96
66 62 53 49 49 49 48 40 38 33 32 27 26 26 29 31 38 52 59 64 69 73 79 64 54 51 48 50 50 44 40 62 83 88 90 95 96 97 99 98 88 91 94
66 56 51 50 50 48 44 40 38 37 33 29 27 29 32 41 47 59 66 71 76 84 76 62 49 50 51 50 46 40 42 69 82 90 93 96 98 99 98 99 96 88 93
61 52 50 52 53 48 42 41 39 34 30 27 32 36 38 45 54 62 70 76 88 92 76 56 50 49 49 48 45 43 48 73 85 91 93 95 97 98 98 98 97 90 85
53 52 54 54 48 43 40 33 31 29 28 31 35 38 43 51 60 68 79 84 87 77 61 56 50 47 49 47 46 44 51 77 87 93 95 97 98 98 99 99 99 90 88
54 57 53 43 38 33 29 28 29 29 31 32 39 46 50 55 63 72 75 64 61 60 57 52 46 49 49 48 47 46 51 78 90 96 97 97 98 98 99 99 99 95 88
56 46 39 32 29 27 27 29 28 30 31 37 50 55 55 55 58 61 58 51 57 59 54 48 46 53 49 50 48 48 50 77 92 96 96 97 94 92 95 99 99 99 95
43 36 32 30 28 26 23 23 25 29 35 49 60 63 62 59 56 56 55 54 55 55 52 46 52 54 53 53 51 51 47 67 88 95 96 95 80 79 57 70 97 99 99
34 33 32 30 27 24 22 25 30 35 45 53 65 71 72 68 58 53 52 53 53 52 50 53 56 58 59 56 54 52 49 50 69 85 94 86 80 77 72 55 64 87 91

GFSMW_prec_cthk_009.txt.gz
RH
47 48 52 57 62 65 70 74 76 74 78 71 72 75 78 75 78 75 78 77 73 70 62 53 51 49 45 40 39 41 41 40 39 38 35 38 42 41 39 39 38 37 37
55 59 61 68 70 68 67 75 71 70 71 68 70 74 80 78 76 75 77 72 64 58 54 51 48 43 42 44 45 46 43 42 43 43 37 36 36 40 43 43 43 43 43
64 68 67 67 67 69 64 60 60 66 67 70 70 66 66 68 69 68 63 57 52 50 48 48 50 50 50 49 48 50 52 54 54 52 47 41 40 37 35 38 43 43 42
64 59 60 55 54 53 52 53 54 56 58 60 61 63 64 64 60 55 52 52 54 52 51 52 52 53 55 59 54 46 40 38 37 35 32 32 35 37 34 33 29 30 33
63 58 52 54 54 56 55 56 58 60 62 59 59 59 57 54 52 52 52 52 52 51 50 56 60 64 57 54 52 48 33 32 35 37 36 34 36 40 42 37 37 37 29
60 56 59 64 62 55 53 58 63 64 65 62 57 55 54 52 51 53 54 54 55 56 58 70 57 57 58 53 54 48 32 31 33 33 34 38 44 49 49 49 41 42 35
66 68 65 58 58 59 60 57 57 54 51 52 53 52 53 57 59 59 57 58 56 49 46 43 45 49 51 48 41 37 37 39 42 42 40 44 47 48 53 53 52 51 42
75 65 56 60 64 65 63 56 52 52 56 57 56 56 56 61 59 58 54 49 40 37 42 51 59 60 66 58 51 50 52 50 50 45 37 34 38 46 45 53 62 57 56
58 53 61 68 66 66 60 57 56 56 57 57 59 55 53 51 45 42 37 36 36 40 51 62 69 74 75 70 65 57 65 59 45 46 43 38 36 37 38 43 47 53 53
57 62 70 76 72 69 65 63 64 64 62 57 51 47 43 40 35 34 33 35 40 46 51 54 56 67 74 74 71 65 63 53 50 47 44 42 37 37 39 40 41 41 42
63 66 72 76 77 79 74 69 66 64 60 54 44 36 31 30 30 27 26 31 39 47 54 50 58 75 71 69 74 70 61 50 43 43 45 49 45 43 43 43 42 40 41
67 71 78 79 84 78 71 70 67 63 57 45 40 36 34 29 24 21 23 33 43 48 52 56 62 65 71 65 61 62 49 46 47 47 51 51 47 46 47 46 42 39 38
68 72 76 75 76 73 72 69 65 55 48 44 39 35 30 26 21 18 20 26 28 32 44 49 51 53 67 69 69 50 47 51 51 53 53 51 44 43 53 58 59 61 64
69 71 70 71 69 74 72 64 56 53 46 40 37 33 27 23 21 21 22 26 30 40 44 50 54 62 76 77 56 50 49 53 57 56 48 42 52 61 62 64 66 74 76
69 69 70 72 78 72 66 61 54 47 44 39 36 31 28 23 23 23 23 27 37 46 51 57 64 82 75 62 50 50 51 56 52 47 43 53 67 75 74 75 78 81 85
71 74 79 77 68 65 60 54 50 48 44 38 34 32 28 25 25 24 26 32 43 51 59 69 78 75 67 56 50 51 52 52 48 43 45 66 77 80 84 90 93 95 93
73 70 67 65 66 62 57 52 50 47 41 38 36 33 29 28 27 26 28 38 46 57 71 72 69 68 65 55 48 48 49 46 44 42 62 77 84 89 95 96 96 96 96
68 65 66 67 63 57 52 50 49 45 41 39 37 32 28 29 30 31 37 45 52 60 66 67 74 75 65 51 45 44 44 41 41 47 73 83 90 96 97 98 99 99 96
62 63 66 62 54 51 51 50 48 44 41 36 32 30 31 30 32 36 42 51 59 64 68 74 82 80 61 50 43 41 41 42 41 59 83 91 94 95 97 98 99 98 96
65 66 62 54 52 53 50 50 43 39 34 30 29 33 32 31 35 42 47 55 64 72 80 86 86 69 57 47 41 42 42 42 42 69 89 93 95 98 98 98 98 98 95
67 64 56 54 54 50 48 39 34 31 31 31 32 35 33 35 40 47 55 64 72 76 72 65 66 59 50 45 44 43 44 45 47 73 90 94 98 98 99 99 99 99 92
69 63 58 55 51 45 35 31 30 31 31 31 32 35 40 43 46 50 58 66 63 62 58 60 60 54 50 45 47 46 45 48 48 72 91 96 97 98 98 98 99 99 91
73 64 55 51 43 33 32 32 30 28 27 29 32 40 49 53 51 52 55 57 55 56 58 57 54 52 49 51 52 48 47 44 47 67 92 96 92 85 66 70 98 98 94
67 56 51 41 35 35 34 33 30 26 27 31 36 47 56 60 60 59 59 55 54 56 56 55 53 52 55 57 56 51 49 44 40 55 90 94 79 79 72 55 87 99 99
57 52 43 38 36 35 33 30 26 26 30 36 43 52 62 66 68 70 66 59 55 52 54 53 54 57 61 62 58 52 49 46 41 41 76 86 80 76 74 65 58 87 96
53 44 41 39 36 34 28 27 27 30 35 40 47 57 66 70 75 76 67 58 54 53 55 56 60 61 64 65 58 52 50 50 47 40 52 80 85 80 77 71 57 58 87

GFSMW_prec_cthk_012.txt.gz
RH
52 55 54 60 60 66 70 73 84 86 79 75 74 75 75 80 78 73 71 71 72 69 60 52 48 47 46 44 43 44 44 43 41 40 41 43 44 43 40 40 39 35 36
53 54 60 65 71 71 73 80 72 70 72 73 73 70 64 63 61 62 62 60 54 48 44 45 47 47 47 47 49 48 49 48 45 40 38 36 32 31 29 24 24 25 26
62 67 71 74 71 67 62 57 58 60 61 61 58 59 60 59 59 57 55 49 46 47 48 50 51 50 50 49 54 52 45 42 43 39 39 36 33 32 27 21 19 22 22
57 62 63 58 53 50 51 57 58 54 56 58 61 64 64 61 56 52 49 49 51 55 57 56 52 50 50 46 46 43 41 36 35 35 36 37 42 44 38 36 31 29 26
60 61 60 57 57 58 60 55 53 55 58 60 58 57 53 52 53 54 54 56 56 56 54 49 46 42 41 38 39 38 41 37 34 35 33 35 39 44 53 50 38 34 32
56 59 61 66 70 62 57 59 61 60 53 52 52 54 56 58 58 57 56 57 53 49 42 40 39 38 42 41 43 45 44 40 38 41 45 45 44 43 46 47 43 42 32
55 60 68 68 63 63 62 63 65 60 56 56 59 60 61 60 58 57 55 52 43 34 30 31 37 39 36 48 49 55 73 67 60 57 52 51 48 45 44 48 42 42 35
59 66 74 58 58 63 67 70 68 66 63 60 59 57 53 51 48 44 37 32 30 30 29 31 32 38 46 51 49 57 56 63 53 54 52 53 51 43 38 39 40 36 36
60 59 55 58 61 63 66 71 71 70 66 58 55 52 50 45 39 34 30 27 24 24 31 35 40 62 57 62 59 55 65 61 55 55 52 47 46 46 46 46 49 49 42
52 55 56 57 59 61 67 66 78 74 69 65 61 55 47 42 36 30 26 22 19 24 32 40 52 61 57 54 52 57 52 56 54 44 44 48 47 46 49 50 50 52 51
54 57 59 61 65 68 74 84 73 71 71 65 57 50 45 41 33 27 23 20 20 30 35 46 43 44 48 42 43 50 57 57 46 43 44 45 48 46 49 49 45 43 47
57 59 63 68 72 78 78 72 75 77 67 58 52 49 44 36 31 26 22 20 20 28 33 37 38 48 50 47 54 64 64 60 43 42 44 48 50 50 44 40 47 57 61
59 63 68 71 72 71 69 77 79 68 60 57 54 48 40 35 30 25 22 20 22 29 35 38 49 50 53 56 69 63 60 48 43 46 49 50 47 41 40 53 63 67 68
61 65 68 69 68 67 80 72 62 59 61 59 52 45 40 35 29 24 22 24 27 31 37 43 48 52 56 65 68 69 58 44 45 47 50 46 44 42 56 71 76 79 84
64 67 68 67 71 80 71 63 62 62 59 52 49 43 39 32 26 25 27 27 29 31 41 45 52 57 65 69 67 66 58 44 44 45 44 42 41 54 76 82 85 89 92
66 66 68 75 77 63 60 63 62 57 53 51 46 42 34 29 27 28 29 30 33 38 42 49 61 68 67 67 73 72 51 47 41 38 39 39 43 70 84 89 94 97 96
66 68 68 66 61 62 64 61 56 54 51 49 42 36 33 30 29 29 30 32 38 44 49 57 63 65 68 77 83 66 52 41 38 41 39 39 59 80 86 89 94 97 99
67 66 65 66 67 62 59 56 56 52 51 43 38 35 32 33 30 28 30 34 41 50 58 64 68 75 80 82 73 55 43 37 42 41 42 46 73 85 90 95 97 98 98
66 66 68 67 61 59 58 58 54 52 42 38 34 34 34 32 30 30 34 39 46 55 61 68 76 79 73 64 56 45 40 41 43 42 45 53 82 90 96 97 96 98 98
66 67 70 66 64 60 58 55 52 43 37 35 36 33 33 34 33 36 41 48 53 62 68 70 63 55 58 55 48 44 41 44 43 44 47 59 86 94 97 97 96 98 99
71 71 72 72 69 62 56 53 43 37 36 34 30 30 33 34 39 43 47 52 56 59 59 57 54 57 53 48 46 44 47 46 44 43 48 60 89 91 89 74 66 99 99
72 75 79 78 66 57 53 44 39 37 34 30 28 28 30 36 45 50 52 51 55 54 54 53 54 53 52 48 47 51 51 50 42 38 49 60 88 79 77 71 63 98 99
78 83 84 70 59 57 46 41 39 36 32 28 27 28 33 41 51 53 56 59 61 58 57 56 53 54 53 51 55 56 54 49 42 36 41 56 73 76 77 75 66 82 99
86 89 69 63 58 49 43 40 39 33 29 27 28 32 38 46 54 60 64 68 64 61 57 53 55 56 56 58 61 59 51 47 45 40 38 48 70 78 77 76 72 61 95
85 71 67 60 50 45 42 41 35 29 26 27 31 38 44 50 58 64 71 75 70 61 54 53 56 59 61 64 63 57 48 46 46 45 43 42 54 76 78 74 72 64 75
72 70 62 50 47 43 42 36 31 28 29 31 36 44 50 56 63 71 78 79 64 57 57 57 60 62 63 64 63 53 49 48 49 51 48 47 46 65 78 79 73 66 56